Monroe, WI

6:52 PM CST on February 13, 2016 (GMT -0600)
Monroe Municipal

Weather History for KEFT - March, 2014

Change the Weather History Date:

Friday, March 7, 2014

  Actual Average Record
Temperature  
Mean Temperature 29 °F -  
Max Temperature 42 °F 0 °F 62 °F (2012)
Min Temperature 16 °F - 8 °F (1999)
Degree Days  
Heating Degree Days 36    
Moisture  
Dew Point 26 °F    
Average Humidity 85    
Maximum Humidity 100    
Minimum Humidity 57    
Precipitation  
Precipitation 0.01 in - - ()
Sea Level Pressure  
Sea Level Pressure 29.90 in    
Wind  
Wind Speed 12 mph (SW)    
Max Wind Speed 20 mph    
Max Gust Speed 22 mph    
Visibility 8 miles    
Events Rain    
Averages and records for this station are not official NWS values.
T = Trace of Precipitation, MM = Missing Value Source: NWS Daily Summary

Daily Weather History Graph

Daily Weather History Graph

Search for Another Location

Airport or City:

Trip Planner

Search our weather history database for the weather conditions in past years. The results will help you decide how hot, cold, wet, or windy it might be!

Date:

Astronomy

Mar. 07, 2014 Rise Set
Actual Time 6:23 AM CST 5:55 PM CST
Civil Twilight 5:55 AM CST 6:23 PM CST
Nautical Twilight 5:23 AM CST 6:56 PM CST
Astronomical Twilight 4:50 AM CST 7:29 PM CST
Moon 10:08 AM CST (3/7) 12:08 AM CST (3/7)
Length of Visible Light 12h 27m
Length of Day
11h 31m
Waxing Crescent, 42% of the Moon is Illuminated
Mar 7
Waxing Crescent
Mar 8
First Quarter
Mar 16
Full
Mar 23
Last Quarter
Mar 30
New

Hourly Weather History & Observations

Time (CST) Temp. Windchill Dew Point Humidity Pressure Visibility Wind Dir Wind Speed Gust Speed Precip Events Conditions
12:15 AM 17.1 °F 3.6 °F 17.1 °F 100% 29.99 in 10.0 mi South 12.7 mph - N/A   Clear
12:35 AM 17.4 °F 2.4 °F 17.4 °F 100% 29.98 in 10.0 mi South 16.1 mph - N/A   Clear
1:00 AM 17.6 °F 3.7 °F 17.6 °F 100% 29.98 in 10.0 mi South 13.8 mph - N/A   Clear
1:15 AM 18.0 °F 3.1 °F 18.0 °F 100% 29.98 in 10.0 mi South 16.1 mph - N/A   Clear
1:35 AM 18.1 °F 5.0 °F 18.1 °F 100% 29.98 in 10.0 mi South 12.7 mph - N/A   Clear
1:55 AM 17.8 °F 4.6 °F 17.8 °F 100% 29.98 in 10.0 mi South 12.7 mph - N/A   Clear
2:15 AM 17.2 °F 3.9 °F 17.2 °F 100% 29.96 in 10.0 mi South 12.7 mph - N/A   Clear
2:35 AM 17.2 °F 3.9 °F 17.2 °F 100% 29.95 in 10.0 mi South 12.7 mph - N/A   Clear
2:55 AM 16.7 °F 4.5 °F 16.7 °F 100% 29.95 in 10.0 mi South 10.4 mph - N/A   Clear
3:15 AM 16.3 °F 4.1 °F 16.3 °F 100% 29.95 in 10.0 mi South 10.4 mph - N/A   Clear
3:35 AM 16.3 °F 3.4 °F 16.3 °F 100% 29.94 in 10.0 mi South 11.5 mph - N/A   Clear
3:55 AM 16.5 °F 3.6 °F 16.5 °F 100% 29.93 in 10.0 mi South 11.5 mph - N/A   Clear
4:15 AM 17.1 °F 3.0 °F 17.1 °F 100% 29.92 in 10.0 mi South 13.8 mph - N/A   Clear
4:35 AM 17.6 °F 4.3 °F 17.6 °F 100% 29.92 in 10.0 mi South 12.7 mph - N/A   Clear
4:55 AM 17.4 °F 4.7 °F 17.4 °F 100% 29.92 in 10.0 mi South 11.5 mph - N/A   Clear
5:15 AM 17.6 °F 3.2 °F 17.6 °F 100% 29.91 in 10.0 mi South 15.0 mph - N/A   Clear
5:35 AM 19.0 °F 5.0 °F 19.0 °F 100% 29.91 in 10.0 mi South 15.0 mph - N/A   Clear
5:55 AM 20.5 °F 6.4 °F 20.5 °F 100% 29.91 in 10.0 mi South 16.1 mph - N/A   Clear
6:15 AM 21.0 °F 7.6 °F 21.0 °F 100% 29.91 in 10.0 mi SSW 15.0 mph - N/A   Clear
6:35 AM 21.2 °F 7.8 °F 21.2 °F 100% 29.90 in 7.0 mi South 15.0 mph - N/A   Clear
6:55 AM 21.9 °F 8.2 °F 21.9 °F 100% 29.91 in 7.0 mi SSW 16.1 mph 19.6 mph N/A   Clear
7:15 AM 22.6 °F 8.3 °F 22.6 °F 100% 29.90 in 7.0 mi South 18.4 mph - N/A   Clear
7:35 AM 23.4 °F 10.1 °F 23.4 °F 100% 29.89 in 7.0 mi South 16.1 mph - N/A   Clear
7:55 AM 25.3 °F 12.6 °F 25.2 °F 99% 29.90 in 7.0 mi South 16.1 mph 21.9 mph N/A   Clear
8:15 AM 26.1 °F 12.7 °F 24.6 °F 94% 29.90 in 7.0 mi SSW 18.4 mph - N/A   Clear
8:35 AM 27.3 °F 16.1 °F 24.6 °F 90% 29.89 in 10.0 mi SSW 13.8 mph - N/A   Clear
8:55 AM 27.5 °F 16.3 °F 23.5 °F 85% 29.89 in 10.0 mi SSW 13.8 mph - N/A   Clear
9:15 AM 29.5 °F 18.8 °F 22.6 °F 76% 29.89 in 10.0 mi SSW 13.8 mph - N/A   Clear
9:35 AM 31.6 °F 21.6 °F 21.9 °F 67% 29.87 in 10.0 mi South 13.8 mph - N/A   Clear
9:55 AM 34.2 °F 24.4 °F 22.6 °F 63% 29.86 in 10.0 mi SSW 15.0 mph - N/A   Clear
10:15 AM 35.2 °F 27.6 °F 23.0 °F 61% 29.87 in 10.0 mi SSW 10.4 mph 16.1 mph N/A   Clear
10:35 AM 36.7 °F 27.2 °F 23.5 °F 59% 29.86 in 10.0 mi SSW 16.1 mph 19.6 mph N/A   Clear
10:55 AM 37.0 °F 28.1 °F 23.9 °F 59% 29.86 in 10.0 mi SSW 15.0 mph 19.6 mph N/A   Clear
11:15 AM 38.8 °F 30.4 °F 24.6 °F 57% 29.85 in 10.0 mi SSW 15.0 mph - N/A   Clear
11:35 AM 39.2 °F 30.5 °F 25.5 °F 58% 29.84 in 10.0 mi SSW 16.1 mph 20.7 mph N/A   Clear
11:55 AM 39.7 °F 30.3 °F 25.7 °F 57% 29.84 in 10.0 mi SSW 19.6 mph - N/A   Clear
12:15 PM 39.7 °F 31.5 °F 25.7 °F 57% 29.84 in 10.0 mi SSW 15.0 mph - N/A   Clear
12:35 PM 39.7 °F 32.3 °F 26.4 °F 59% 29.84 in 10.0 mi SSW 12.7 mph - N/A   Clear
12:55 PM 39.0 °F 33.4 °F 26.6 °F 61% 29.83 in 10.0 mi SSW 8.1 mph - N/A   Scattered Clouds
1:15 PM 39.2 °F 33.0 °F 27.0 °F 62% 29.82 in 10.0 mi South 9.2 mph - N/A   Scattered Clouds
1:35 PM 39.0 °F 31.8 °F 27.0 °F 62% 29.83 in 10.0 mi South 11.5 mph - N/A   Mostly Cloudy
1:55 PM 41.5 °F 35.0 °F 27.7 °F 58% 29.83 in 10.0 mi SSW 11.5 mph - N/A   Mostly Cloudy
2:15 PM 41.7 °F 35.2 °F 27.9 °F 58% 29.82 in 10.0 mi SSW 11.5 mph - N/A   Clear
2:40 PM 41.9 °F 37.5 °F 28.4 °F 59% 29.82 in 10.0 mi SSW 6.9 mph - N/A   Scattered Clouds
2:55 PM 42.1 °F 37.7 °F 28.9 °F 60% 29.82 in 10.0 mi SSW 6.9 mph - N/A   Scattered Clouds
3:15 PM 42.4 °F 35.7 °F 29.1 °F 59% 29.83 in 10.0 mi SW 12.7 mph - N/A   Clear
3:35 PM 41.9 °F 35.0 °F 29.3 °F 61% 29.83 in 10.0 mi SW 12.7 mph - N/A   Clear
3:55 PM 41.2 °F 35.5 °F 29.7 °F 64% 29.83 in 10.0 mi WSW 9.2 mph - N/A   Clear
4:15 PM 41.0 °F 35.2 °F 31.1 °F 68% 29.84 in 10.0 mi West 9.2 mph - N/A   Clear
4:35 PM 40.1 °F 33.2 °F 31.1 °F 70% 29.85 in 10.0 mi West 11.5 mph - N/A   Clear
4:55 PM 39.6 °F 33.0 °F 30.9 °F 71% 29.86 in 7.0 mi West 10.4 mph - N/A   Mostly Cloudy
5:15 PM 39.2 °F 33.6 °F 31.1 °F 73% 29.86 in 7.0 mi West 8.1 mph - N/A   Overcast
5:35 PM 38.3 °F 31.9 °F 31.1 °F 75% 29.88 in 7.0 mi West 9.2 mph - N/A   Overcast
5:55 PM 37.8 °F 32.5 °F 31.6 °F 79% 29.89 in 7.0 mi West 6.9 mph - N/A   Overcast
6:15 PM 37.8 °F 32.5 °F 31.5 °F 78% 29.90 in 7.0 mi West 6.9 mph - N/A   Overcast
6:35 PM 37.4 °F 32.8 °F 31.6 °F 80% 29.90 in 7.0 mi West 5.8 mph - N/A   Overcast
6:55 PM 37.0 °F 32.4 °F 36.0 °F 96% 29.91 in 7.0 mi West 5.8 mph - N/A   Overcast
7:20 PM 36.7 °F 32.9 °F 36.7 °F 100% 29.92 in 5.0 mi WNW 4.6 mph - N/A Rain Light Rain
7:35 PM 36.1 °F 31.4 °F 36.1 °F 100% 29.92 in 5.0 mi NW 5.8 mph - N/A Rain Light Rain
7:55 PM 35.6 °F 31.7 °F 35.6 °F 100% 29.91 in 4.0 mi NNW 4.6 mph - 0.01 in Rain Light Rain
8:15 PM 35.6 °F 31.7 °F 35.6 °F 100% 29.93 in 4.0 mi NW 4.6 mph - N/A   Drizzle
8:35 PM 35.2 °F 30.3 °F 35.2 °F 100% 29.94 in 4.0 mi NW 5.8 mph - N/A   Light Drizzle
8:55 PM 35.6 °F 32.8 °F 35.6 °F 100% 29.95 in 4.0 mi NNW 3.5 mph - N/A   Overcast
9:15 PM 35.1 °F 32.2 °F 35.1 °F 100% 29.95 in 4.0 mi NNW 3.5 mph - N/A   Overcast
9:35 PM 34.9 °F 30.8 °F 34.9 °F 100% 29.95 in 4.0 mi North 4.6 mph - N/A   Overcast
9:55 PM 34.9 °F 30.8 °F 34.9 °F 100% 29.97 in 4.0 mi North 4.6 mph - N/A   Overcast
10:15 PM 34.7 °F 29.6 °F 34.7 °F 100% 29.97 in 4.0 mi North 5.8 mph - N/A   Overcast
10:35 PM 34.3 °F 29.2 °F 34.3 °F 100% 29.98 in 4.0 mi North 5.8 mph - N/A   Overcast
10:55 PM 34.3 °F 29.2 °F 34.3 °F 100% 29.98 in 5.0 mi North 5.8 mph - N/A   Overcast
11:15 PM 34.2 °F 28.2 °F 34.2 °F 100% 30.00 in 5.0 mi North 6.9 mph - N/A   Overcast
11:35 PM 33.8 °F 27.0 °F 33.8 °F 100% 30.00 in 5.0 mi North 8.1 mph - N/A   Overcast
11:55 PM 33.8 °F 27.7 °F 33.8 °F 100% 30.00 in 5.0 mi North 6.9 mph - N/A   Overcast